Probability
0 0 0 0 0 0 0 0 0 0 0 0 0 0 0 0 0 0 0 0 0 0 0 0 0 0 0 0 0 0 0 0 0 0 0 0 0 0 0 0 0 0 0
0 0 0 0 0 0 0 0 0 0 0 0 0 0 0 0 0 0 0 0 0 0 0 0 0 0 0 0 0 0 0 0 0 0 0 0 0 0 0 0 0 0 0
0 0 0 0 0 0 0 0 0 0 0 0 0 0 0 0 0 0 0 0 0 0 0 0 0 0 0 0 0 0 0 0 0 0 0 0 0 0 0 0 0 0 0
0 0 0 0 0 0 0 0 0 0 0 0 0 0 0 0 0 0 0 0 0 0 0 0 0 0 0 0 0 0 0 0 0 0 0 0 0 0 0 0 0 0 0
0 0 0 0 0 0 0 0 0 0 0 0 0 0 0 0 0 0 0 0 0 0 0 0 0 0 0 0 0 0 0 0 0 0 0 0 0 0 0 0 0 0 0
0 0 0 0 0 0 0 0 0 0 0 0 0 0 0 0 0 0 0 0 0 0 0 0 0 0 0 0 0 0 0 0 0 0 0 0 0 0 0 0 0 0 0
0 0 0 0 0 0 0 0 0 0 0 0 0 0 0 0 0 0 0 0 0 0 0 0 0 0 0 0 0 0 0 0 0 0 0 0 0 0 0 0 0 0 0
0 0 0 0 0 0 0 0 0 0 0 0 0 0 0 0 0 0 0 0 0 0 0 0 0 0 0 0 0 0 0 0 0 0 0 0 0 0 0 0 0 0 0
0 0 0 0 0 0 0 0 0 0 0 0 0 0 0 0 0 0 0 0 0 0 0 0 0 0 0 0 0 0 0 0 0 0 0 0 0 0 0 0 0 0 0
0 0 0 0 0 0 0 0 0 0 0 0 0 0 0 0 0 0 0 0 0 0 0 0 0 0 0 0 0 0 0 0 0 0 0 0 0 0 0 0 0 0 0
0 0 0 0 0 0 0 0 0 0 0 0 0 0 0 0 0 0 0 0 0 0 0 0 0 0 0 0 0 0 0 0 0 0 0 0 0 0 0 0 0 0 0
0 0 0 0 0 0 0 0 0 0 0 0 0 0 0 0 0 0 0 0 0 0 0 0 0 0 0 0 0 0 0 0 0 0 0 0 0 0 0 0 0 0 0
0 0 0 0 0 0 0 0 0 0 0 0 0 0 0 0 0 0 0 0 0 0 0 0 0 0 0 0 0 0 0 0 0 0 0 0 0 0 0 0 0 0 0
0 0 0 0 0 0 0 0 0 0 0 0 0 0 0 0 0 0 0 0 0 0 0 0 0 0 0 0 0 0 0 0 0 0 0 0 0 0 0 0 0 0 0
0 0 0 0 0 0 0 0 0 0 0 0 0 0 0 0 0 0 0 0 0 0 0 0 0 0 0 0 0 0 0 0 0 0 0 0 0 0 0 0 0 0 0
0 0 0 0 0 0 0 0 0 0 0 0 0 0 0 0 0 0 0 0 0 0 0 0 0 0 0 0 0 0 0 0 0 0 0 0 0 0 0 0 0 0 0
0 0 0 0 0 0 0 0 0 0 0 0 0 0 0 0 0 0 0 0 0 0 0 0 0 0 0 0 0 0 0 0 0 0 0 0 0 0 0 0 0 0 0
0 0 0 0 0 0 0 0 0 0 0 0 0 0 0 0 0 0 0 0 0 0 0 0 0 0 0 0 0 0 0 0 0 0 0 0 0 0 0 0 0 0 0
0 0 0 0 0 0 0 0 0 0 0 0 0 0 0 0 0 0 0 0 0 0 0 0 0 0 0 0 0 0 0 0 0 0 0 0 0 0 0 0 0 0 0
0 0 0 0 0 0 0 0 0 0 0 0 0 0 0 0 0 0 0 0 0 0 0 0 0 0 0 0 0 0 0 0 0 0 0 0 0 0 0 0 0 0 0
0 0 0 0 0 0 0 0 0 0 0 0 0 0 0 0 0 0 0 0 0 0 0 0 0 0 0 0 0 0 0 0 0 0 0 0 0 0 0 0 0 0 0
0 0 0 0 0 0 0 0 0 0 0 0 0 0 0 0 0 0 0 0 0 0 0 0 0 0 0 0 0 0 0 0 0 0 0 0 0 0 0 0 0 0 0
0 0 0 0 0 0 0 0 0 0 0 0 0 0 0 0 0 0 0 0 0 0 0 0 0 0 0 0 0 0 0 0 0 0 0 0 0 0 0 0 0 0 0
0 0 0 0 0 0 0 0 0 0 0 0 0 0 0 0 0 0 0 0 0 0 0 0 0 0 0 0 0 0 0 0 0 0 0 0 0 0 0 0 0 0 0
0 0 0 0 0 0 0 0 0 0 0 0 0 0 0 0 0 0 0 0 0 0 0 0 0 0 0 0 0 0 0 0 0 0 0 0 0 0 0 0 0 0 0
0 0 0 0 0 0 0 0 0 0 0 0 0 0 0 0 0 0 0 0 0 0 0 0 0 0 0 0 0 0 0 0 0 0 0 0 0 0 0 0 0 0 0
Wind_Speed
13 13 14 13 13 13 12 12 11 10 10 10 10 10 9 8 8 8 8 8 8 7 6 7 7 5 5 5 4 4 4 2 1 1 2 3 3 5 6 5 5 5 5
13 14 14 13 13 13 12 11 10 10 9 9 9 9 9 8 8 8 8 7 7 7 6 6 6 4 5 4 4 4 3 2 1 2 2 3 3 4 5 6 5 5 5
12 13 13 12 12 12 11 9 9 9 9 9 9 9 8 7 7 6 6 6 6 5 5 5 4 4 4 3 3 3 2 2 1 1 2 2 3 3 4 4 5 4 6
11 12 12 11 10 10 9 9 8 8 9 8 8 8 7 7 6 6 6 5 5 5 4 4 3 3 3 3 3 3 2 2 2 2 2 3 3 3 3 3 5 5 5
11 11 10 9 9 9 8 8 7 7 8 7 7 7 6 6 5 5 5 5 5 5 5 4 3 4 5 3 3 3 2 2 2 2 2 2 3 3 3 3 4 6 4
10 9 8 8 8 8 7 6 7 7 6 7 7 7 7 5 7 7 5 4 4 4 4 4 4 4 6 7 7 6 3 2 2 2 2 3 4 4 3 3 3 4 4
8 8 7 7 7 6 6 6 6 5 5 6 5 6 6 6 8 8 7 4 4 3 3 4 4 4 6 6 7 8 6 5 5 3 3 4 4 3 4 5 4 3 4
7 7 6 6 6 5 6 5 4 3 4 3 4 4 5 6 8 8 7 4 3 3 3 3 3 5 5 7 6 7 6 5 4 3 5 7 7 7 5 4 4 5 6
6 5 5 5 5 5 4 4 3 3 3 3 3 4 5 5 8 7 5 3 3 4 4 4 4 5 8 8 5 6 7 5 4 5 7 8 9 9 5 2 3 3 4
5 4 4 4 4 4 3 2 2 2 2 3 4 4 4 4 7 7 5 2 3 4 4 4 5 7 9 7 3 3 5 6 7 8 6 6 4 4 1 2 2 2 2
4 4 4 3 3 3 3 2 2 3 3 3 4 3 4 4 6 8 6 3 3 3 4 4 5 10 10 7 3 2 5 6 5 5 5 5 5 4 3 2 2 3 2
5 4 3 3 3 3 4 3 3 4 4 3 3 3 2 3 4 6 7 6 4 2 3 4 5 10 8 7 5 5 5 3 2 3 4 4 4 5 5 5 3 3 5
5 4 4 4 4 3 3 4 3 3 3 2 2 1 2 2 3 6 7 7 7 3 3 6 7 7 6 5 8 9 6 4 4 4 4 4 4 5 5 4 3 2 2
4 4 3 4 4 4 3 3 3 2 2 2 1 1 1 2 3 4 5 4 5 4 3 5 6 7 7 6 6 6 5 4 3 3 4 4 4 4 3 3 3 4 3
4 3 3 3 3 3 3 2 2 1 1 2 1 1 0 1 3 5 5 4 4 3 3 3 5 5 6 6 5 5 5 6 5 5 4 5 5 5 4 3 3 2 3
3 3 2 2 2 2 2 2 2 1 1 2 3 2 2 3 6 6 6 5 4 3 3 3 3 4 4 5 5 5 5 6 6 5 5 5 5 5 4 3 3 3 3
4 3 2 2 3 2 2 2 1 2 1 0 1 2 3 4 5 3 3 5 7 5 4 3 3 3 3 4 4 4 5 5 5 5 5 5 5 4 4 4 4 3 4
3 3 3 2 3 3 3 2 1 1 1 1 2 2 3 2 3 3 3 3 4 4 3 2 2 3 3 4 4 4 5 6 5 5 5 5 5 4 4 4 4 4 4
3 2 2 2 2 2 2 2 2 1 1 0 1 2 4 3 5 7 5 3 2 2 2 2 2 3 3 3 4 4 5 5 6 5 5 6 5 4 4 5 4 5 3
2 3 4 3 2 2 2 2 2 2 1 0 1 1 2 2 2 3 3 2 1 1 1 2 2 3 3 4 4 5 5 5 6 5 5 5 5 4 5 6 5 4 4
2 2 4 3 2 3 2 2 2 2 1 1 0 1 1 0 0 1 1 1 1 1 1 2 2 3 3 4 4 5 6 5 5 5 5 5 5 5 5 5 5 4 4
3 2 2 3 2 2 2 2 2 2 1 1 0 1 1 1 0 0 0 1 1 1 1 1 2 3 3 4 4 5 5 6 6 6 6 6 5 5 5 5 5 4 4
3 3 2 2 2 3 3 2 2 2 1 1 1 0 0 0 0 0 0 0 0 1 1 1 2 3 3 3 3 4 5 5 6 6 6 6 6 5 5 5 6 5 5
3 3 3 3 3 3 3 2 2 2 2 1 1 1 1 0 0 0 0 0 1 1 1 2 2 4 6 5 4 4 4 6 7 5 7 6 6 6 5 5 5 6 5
2 3 3 3 3 3 3 2 2 2 1 1 1 1 1 1 0 0 0 1 1 1 1 2 2 4 6 8 7 7 8 9 7 6 5 4 5 6 5 5 4 5 5
2 3 3 3 3 3 3 3 2 2 2 1 1 1 1 1 1 1 1 1 1 1 0 1 3 5 6 6 8 9 9 9 9 8 5 4 4 4 5 3 5 4 5
Wind_Direction
80 83 84 84 85 86 84 84 85 82 79 79 77 75 72 68 68 73 71 69 69 63 59 64 59 53 52 43 44 47 43 50 66 318 296 304 308 321 330 329 319 315 311
82 84 85 85 85 86 85 83 84 82 78 78 77 75 72 68 64 69 72 67 69 65 59 61 55 56 52 43 43 43 38 36 42 333 312 311 303 311 318 319 322 323 316
83 86 86 85 86 86 85 82 81 81 77 72 72 71 68 66 64 64 70 69 67 65 62 64 57 57 47 35 35 31 21 24 23 321 308 302 298 312 323 319 323 320 320
86 86 85 83 85 86 84 81 78 78 77 72 70 70 67 64 62 62 66 65 63 58 54 55 54 53 44 23 21 12 6 6 356 333 310 304 299 306 311 323 330 331 325
89 87 86 85 84 82 80 78 77 76 77 76 74 67 61 60 57 67 64 65 59 52 43 35 30 42 39 23 10 351 349 339 332 327 319 314 313 318 324 321 315 321 311
92 91 91 88 85 83 83 82 79 75 71 70 67 65 57 52 55 68 75 65 55 48 32 12 7 24 14 12 6 357 334 292 297 296 298 305 299 295 297 310 316 326 317
94 95 93 91 88 87 91 84 79 75 74 70 64 64 57 42 49 58 66 70 57 43 27 10 4 3 3 353 348 348 340 312 258 237 268 279 285 289 305 306 304 300 290
95 95 96 95 92 88 86 83 81 81 80 74 66 61 56 40 44 51 58 59 52 33 16 3 352 345 351 348 338 337 332 321 293 256 254 271 273 278 265 268 294 296 283
100 98 99 102 100 94 89 85 83 88 79 74 72 63 55 31 32 43 50 40 33 16 4 360 353 344 338 346 343 337 334 332 324 304 280 278 281 283 265 239 272 302 318
112 108 102 104 106 103 100 92 84 96 96 89 74 62 58 37 26 36 41 32 22 1 349 352 358 349 339 344 337 330 330 326 335 339 338 336 328 331 311 228 255 284 307
113 106 99 99 109 110 94 80 93 99 95 84 77 57 47 32 22 28 31 35 11 349 348 346 341 341 345 353 349 294 285 299 313 323 328 338 345 350 354 330 242 234 262
110 104 93 84 93 99 95 83 83 99 96 83 75 52 28 18 17 12 16 19 11 353 337 329 326 339 357 12 16 358 346 347 346 350 352 347 342 338 332 326 304 248 241
107 100 91 84 75 80 94 93 79 80 93 91 87 60 4 353 354 2 5 5 6 2 321 325 346 7 17 23 22 20 21 20 12 5 348 330 314 306 309 322 336 333 292
113 107 106 100 85 71 71 83 92 96 101 105 103 76 358 343 350 352 351 353 359 5 355 354 12 28 35 26 17 16 18 12 5 348 328 318 319 331 347 351 346 348 348
119 116 110 105 105 91 75 70 94 105 171 156 167 174 118 345 322 329 335 337 338 338 352 19 24 18 17 11 4 3 5 8 7 353 343 339 341 348 351 346 343 341 345
123 122 122 125 125 118 109 69 51 82 95 156 179 186 241 263 296 323 345 2 17 45 63 45 27 18 14 5 357 352 355 360 353 344 342 344 342 342 342 348 346 342 335
151 157 153 155 153 153 152 140 98 9 10 272 232 247 267 293 310 333 21 56 50 56 61 44 28 13 4 358 355 348 343 340 337 342 344 344 341 339 345 348 350 344 337
154 163 159 170 176 174 173 166 154 128 45 353 348 348 342 343 17 41 71 71 43 38 42 36 20 6 359 355 351 345 338 342 349 348 347 346 346 340 344 347 348 341 330
158 162 161 167 168 167 166 164 161 154 146 6 353 1 14 43 60 57 61 62 48 28 25 23 10 359 353 349 344 340 338 340 345 343 344 344 343 339 339 341 338 338 339
176 183 165 157 152 152 155 160 161 158 151 118 357 343 350 26 37 29 40 49 46 26 14 9 0 356 351 347 343 341 340 344 347 346 341 338 336 333 335 336 335 335 332
162 166 160 152 159 164 161 165 165 161 163 176 249 276 240 97 61 37 35 33 18 6 1 354 352 352 351 346 343 342 341 339 342 338 334 332 332 331 329 329 329 329 328
154 157 158 163 158 159 160 158 156 165 177 178 225 340 117 115 112 100 25 3 17 27 10 352 353 354 348 344 340 335 333 334 338 336 329 325 325 327 329 334 341 341 344
157 158 156 157 151 152 148 151 158 162 165 174 176 165 141 131 134 257 314 358 77 76 45 19 359 354 352 346 339 330 323 322 319 314 312 314 319 324 328 331 338 342 346
163 167 162 154 148 152 158 161 161 160 159 166 179 199 210 188 175 350 356 123 118 95 56 28 8 357 354 351 342 336 327 316 308 297 296 296 304 312 320 328 338 345 345
161 164 160 157 157 158 157 157 159 163 169 175 181 191 188 166 166 135 125 155 145 126 71 33 7 357 354 352 351 346 335 328 322 316 301 292 299 308 318 332 345 352 356
164 162 157 155 157 159 163 167 173 178 185 192 195 202 195 184 187 192 190 183 182 179 49 10 2 1 356 353 351 346 340 338 337 333 324 315 322 336 342 351 4 7 7